[[{"header":{"parameterUnit":"m.s-1","parameterCategory":1,"la1":30.2991,"la2":30.254,"lo1":-89.0895,"lo2":-89.0444,"dy":0.0017,"dx":0.0017,"nx":28,"ny":28,"refTime":"2025-03-15T03:00:00:Z","depth":0,"parameterNumber":2,"parameterNumberName":"U-component_of_WINDS"},"data":[0,0,0,0,0,0,0,0,0,0,0,0,0,0,0,0,0,0,0,0,0,0,0,0,0,0,0,0,0,0,0,0,0,0,0,0,0,0,0,0,0,0,0,0,0,0,0,0,0,0,0,0,0,0,0,0,0,0,4.4834,4.4835,0,4.4927,4.4928,4.4929,4.484,4.4837,4.4833,4.483,4.4929,4.4935,4.4941,0,0,0,0,0,0,0,0,0,0,0,0,0,4.4584,4.4589,4.4834,4.4835,4.4836,4.4926,4.4928,4.4929,4.4841,4.4836,4.4832,4.4828,4.4927,4.4935,4.4942,0,0,0,0,0,0,0,0,0,0,0,0,0,4.4686,4.4591,4.4834,4.4803,4.4801,4.4926,4.4928,4.4929,4.4842,4.4836,4.4831,4.4826,4.4925,4.4934,4.4943,4.5104,0,0,4.497,4.4974,0,0,0,0,0,0,0,0,4.4681,4.4696,4.4806,4.4805,4.4803,4.4866,4.4876,4.4988,4.4843,4.4826,4.483,4.4823,4.4913,4.4923,4.4952,4.5109,4.5113,4.4971,4.4976,4.498,4.4983,0,0,0,0,0,0,0,4.4674,4.4691,4.4871,4.4808,4.4806,4.4786,4.4794,4.4897,4.4899,4.4827,4.4821,4.4833,4.4911,4.4944,4.4954,4.5115,4.4971,4.4979,4.4984,4.4988,4.5409,4.5414,0,0,0,0,0,0,4.4669,4.4686,4.4868,4.4873,4.4727,4.4794,4.4804,4.4852,4.4897,4.4899,4.4838,4.4829,4.4931,4.4943,4.4957,4.5148,4.498,4.4988,4.4994,4.5403,4.541,4.5416,0,0,0,0,0,0,4.4664,4.4686,4.4864,4.4778,4.4799,4.4804,4.4858,4.4856,4.4888,4.4905,4.4905,4.487,4.4927,4.4944,4.5068,4.515,4.4992,4.5001,4.5396,4.5405,4.5413,4.5533,0,0,0,0,0,0,4.4658,4.4685,4.4746,4.478,4.4804,4.4973,4.4863,4.4862,4.4903,4.4892,4.4935,4.4937,4.4924,4.5055,4.5077,4.516,4.5008,4.5389,4.54,4.5411,4.5522,4.5545,4.5565,0,0,0,0,0,4.4649,4.4777,4.4749,4.4772,4.4879,4.4977,4.4991,4.4972,4.491,4.4972,4.4982,4.4936,4.5138,4.5068,4.5092,4.5179,4.5384,4.5397,4.541,4.5512,4.554,4.5564,0,0,0,0,0,0,4.4754,4.4781,4.475,4.4893,4.4933,4.4962,4.5039,4.5003,4.5063,4.5051,4.5026,4.5037,4.5167,4.5186,4.5108,4.5338,4.5251,4.5269,4.5321,4.5348,4.5369,4.5361,4.5015,0,0,0,0,0,4.4793,4.4869,4.4889,4.5013,4.5035,4.5034,4.5076,4.5058,4.5099,4.5116,4.5136,4.5179,4.5252,4.5301,4.537,4.5524,4.5532,4.5596,4.5618,4.5635,4.5651,4.5734,4.5762,4.546,4.5459,4.5459,0,0,4.4876,4.49,4.495,4.5035,4.5064,4.5144,4.5049,4.5138,4.5198,4.513,4.5247,4.5264,4.5311,4.545,4.5513,4.547,4.5737,4.5652,4.5666,4.5672,4.575,4.5779,4.5804,4.5468,4.5467,4.5465,0,0,4.5068,4.5094,4.5199,4.523,4.5275,4.5273,4.5299,4.5333,4.5341,4.5458,4.5409,4.548,4.5607,4.5642,4.5676,4.5881,4.5841,4.5905,4.6016,4.6097,4.6121,4.6142,4.6214,4.6241,4.5921,4.5921,4.5921,0,4.5165,4.5282,4.5259,4.5351,4.539,4.5331,4.5438,4.547,4.5536,4.5565,4.5515,4.5672,4.57,4.5846,4.5896,4.5927,4.5955,4.5899,4.6119,4.614,4.6159,4.6228,4.6255,4.5928,4.5928,4.5927,4.5926,0,4.54,4.5482,4.5562,4.5625,4.5673,4.5773,4.5765,4.5817,4.5795,4.5799,4.5919,4.595,4.6023,4.6057,4.6037,4.6201,4.6173,4.6122,4.6034,4.6196,4.626,4.6286,4.5939,4.5936,4.5934,4.5932,0,0,4.5659,4.5707,4.5737,4.5764,4.581,4.5873,4.5971,4.6041,4.6085,4.6133,4.6214,4.6323,4.6275,4.6315,4.6299,4.637,4.6529,4.631,4.6311,4.6349,4.6711,4.6748,4.6779,4.6503,4.6508,4.6512,4.6707,0,4.5851,4.6017,4.5999,4.6159,4.6234,4.618,4.6265,4.6303,4.6309,4.6376,4.6384,4.646,4.6393,4.6416,4.6484,4.6495,4.6601,4.6481,4.6578,4.6582,4.6567,4.6813,4.6852,4.7035,4.6732,4.6736,4.6739,0,4.6097,4.6151,4.6318,4.6351,4.6382,4.6458,4.652,4.6584,4.6626,4.6626,4.667,4.6641,4.674,4.6651,4.6787,4.6705,4.6744,4.6756,4.6763,4.677,4.667,4.6826,4.7093,4.712,4.6779,4.6775,4.6773,0,4.6267,4.6383,4.6497,4.6523,4.6565,4.6619,4.664,4.6676,4.6719,4.6775,4.6802,4.6869,4.6906,4.6959,4.695,4.6885,4.7088,4.6998,4.7091,4.7091,4.7135,4.7132,4.7411,4.7163,4.7162,4.7162,4.7161,0,4.6483,4.6587,4.6574,4.6645,4.676,4.6738,4.6853,4.6867,4.69,4.6973,4.6931,4.7001,4.6984,4.7054,4.7048,4.7161,4.7178,4.7181,4.7178,4.7184,4.7184,4.7208,4.7195,4.7169,4.7167,4.7166,4.7165,0,4.6693,4.6688,4.6809,4.6839,4.6849,4.6932,4.6958,4.7025,4.7028,4.712,4.7141,4.7147,4.7226,4.7222,4.7313,4.7309,4.7448,4.7431,4.7433,4.7429,4.7522,4.7513,4.7825,4.7865,4.7592,4.7594,4.7597,0,4.6829,4.6908,4.6945,4.699,4.7014,4.7087,4.713,4.7113,4.716,4.7214,4.7274,4.735,4.7409,4.7539,4.7552,4.7621,4.7604,4.7709,4.7614,4.7618,4.7605,4.7599,4.7607,4.7727,4.773,4.7733,4.7735,0,4.7073,4.7067,4.713,4.7193,4.7245,4.7295,4.734,4.7379,4.7367,4.7422,4.7502,4.7548,4.7639,4.7715,4.7781,4.7803,4.7768,4.7765,4.779,4.7796,4.7794,4.7795,4.7482,4.7757,4.7755,4.7754,4.7752,4.7751,4.7249,4.7316,4.7352,4.7425,4.7456,4.7499,4.7563,4.7574,4.764,4.7711,4.7698,4.7788,4.7828,4.7913,4.7941,4.8012,4.7974,4.8011,4.802,4.8029,4.8039,4.7784,4.8024,4.8023,4.8023,4.8022,4.8022,0,4.7489,4.751,4.7576,4.7639,4.7696,4.7657,4.7705,4.7755,4.7834,4.7874,4.7933,4.8025,4.8098,4.8117,4.8187,4.824,4.8225,4.8259,4.8254,4.826,4.8069,4.8039,4.8269,4.8269,4.8269,4.8269,4.8269,4.8269,4.762,4.7731,4.7729,4.7856,4.7876,4.7962,4.7993,4.8033,4.8064,4.8168,4.8228,4.8239,4.8271,4.8343,4.8409,4.8413,4.844,4.848,4.8477,4.8298,4.8273,4.825,4.8222,4.8487,4.8487,4.8662,4.8664,4.8665]},{"header":{"parameterUnit":"m.s-1","parameterCategory":1,"la1":30.2991,"la2":30.254,"lo1":-89.0895,"lo2":-89.0444,"dy":0.0017,"dx":0.0017,"nx":28,"ny":28,"refTime":"2025-03-15T03:00:00:Z","depth":0,"parameterNumber":3,"parameterNumberName":"V-component_of_WINDS"},"data":[0,0,0,0,0,0,0,0,0,0,0,0,0,0,0,0,0,0,0,0,0,0,0,0,0,0,0,0,0,0,0,0,0,0,0,0,0,0,0,0,0,0,0,0,0,0,0,0,0,0,0,0,0,0,0,0,0,0,2.3698,2.3699,0,2.3773,2.3774,2.3775,2.3768,2.3766,2.3765,2.3764,2.3839,2.3842,2.3845,0,0,0,0,0,0,0,0,0,0,0,0,0,2.3544,2.3547,2.3698,2.3699,2.37,2.3773,2.3774,2.3775,2.3768,2.3766,2.3765,2.3764,2.3838,2.3842,2.3846,0,0,0,0,0,0,0,0,0,0,0,0,0,2.3614,2.3548,2.3698,2.3705,2.3706,2.3773,2.3774,2.3775,2.3768,2.3766,2.3765,2.3763,2.3837,2.3842,2.3846,2.391,0,0,2.386,2.3862,0,0,0,0,0,0,0,0,2.361,2.362,2.3703,2.3704,2.3706,2.3759,2.3748,2.382,2.3768,2.3745,2.3764,2.3762,2.3814,2.382,2.3838,2.3913,2.3917,2.3861,2.3863,2.3865,2.3867,0,0,0,0,0,0,0,2.3606,2.3617,2.3727,2.3704,2.3706,2.3703,2.3711,2.3761,2.3788,2.3746,2.3746,2.3755,2.3814,2.3834,2.384,2.3918,2.3861,2.3865,2.3868,2.3869,2.4048,2.4049,0,0,0,0,0,0,2.3599,2.3613,2.3725,2.373,2.3653,2.3708,2.3717,2.3744,2.3787,2.3792,2.3757,2.3755,2.3827,2.3835,2.3843,2.392,2.3865,2.387,2.3872,2.4046,2.4048,2.405,0,0,0,0,0,0,2.3596,2.3609,2.3722,2.3671,2.3685,2.3712,2.3743,2.3746,2.3766,2.3795,2.38,2.3772,2.3826,2.3836,2.3893,2.3922,2.3872,2.3876,2.4043,2.4046,2.4049,2.4074,0,0,0,0,0,0,2.3592,2.3608,2.3634,2.3672,2.3688,2.3772,2.3745,2.3749,2.3774,2.3772,2.3811,2.3815,2.3825,2.3886,2.3898,2.3928,2.388,2.4041,2.4045,2.4048,2.4071,2.4078,2.4083,0,0,0,0,0,2.3586,2.3637,2.3635,2.3649,2.372,2.3774,2.3783,2.3794,2.3776,2.3801,2.382,2.3814,2.3917,2.3892,2.3905,2.3937,2.4039,2.4044,2.4048,2.4068,2.4076,2.4083,0,0,0,0,0,0,2.3601,2.3643,2.364,2.3705,2.3736,2.3773,2.3805,2.3803,2.3839,2.3835,2.3846,2.3855,2.3912,2.393,2.3902,2.4,2.3975,2.3983,2.3987,2.3995,2.4001,2.3995,2.3884,0,0,0,0,0,2.3612,2.3653,2.3687,2.3741,2.3757,2.3778,2.3802,2.3807,2.384,2.3852,2.3875,2.3906,2.3945,2.3971,2.4009,2.4073,2.4081,2.4101,2.4107,2.4112,2.4119,2.4153,2.4162,2.4064,2.4064,2.4064,0,0,2.3635,2.3663,2.3688,2.3745,2.3769,2.381,2.3789,2.3834,2.3864,2.3859,2.3914,2.3932,2.3967,2.4028,2.4056,2.4044,2.4147,2.4118,2.4122,2.4125,2.4159,2.4168,2.4176,2.4067,2.4067,2.4066,0,0,2.3698,2.3723,2.3771,2.3796,2.3834,2.3848,2.3859,2.3896,2.3907,2.3963,2.396,2.3996,2.4063,2.4088,2.4109,2.4181,2.4176,2.4192,2.4225,2.4259,2.4267,2.4273,2.4298,2.4307,2.4198,2.4198,2.4199,0,2.3722,2.3785,2.3796,2.3841,2.3865,2.3863,2.3911,2.3934,2.3982,2.3999,2.3985,2.4069,2.4093,2.4159,2.4176,2.4194,2.4207,2.4188,2.4265,2.4272,2.4278,2.4302,2.4312,2.42,2.42,2.42,2.42,0,2.3811,2.3855,2.3889,2.3935,2.3964,2.401,2.4027,2.4054,2.4057,2.4072,2.4128,2.4156,2.4199,2.4215,2.4218,2.4282,2.4274,2.4262,2.4238,2.4289,2.4312,2.4321,2.4203,2.4202,2.4202,2.4201,0,0,2.3886,2.3938,2.3951,2.3971,2.4012,2.4046,2.4091,2.4134,2.4157,2.4189,2.4227,2.4284,2.4274,2.4298,2.4304,2.4333,2.4387,2.4318,2.4319,2.433,2.4458,2.4466,2.4477,2.4384,2.4386,2.4387,2.4455,0,2.3953,2.4035,2.4046,2.4118,2.4157,2.4155,2.4195,2.4223,2.4238,2.4273,2.4289,2.4329,2.4313,2.4327,2.4357,2.4374,2.4413,2.437,2.4419,2.442,2.441,2.4489,2.4498,2.456,2.4464,2.4465,2.4466,0,2.4042,2.4078,2.4154,2.4189,2.4206,2.4241,2.4281,2.4315,2.4347,2.4355,2.4382,2.4384,2.443,2.4404,2.4466,2.4437,2.4457,2.4469,2.4471,2.4476,2.4447,2.4495,2.458,2.4589,2.4481,2.4479,2.4478,0,2.4088,2.4155,2.421,2.4227,2.427,2.4295,2.4313,2.4344,2.4368,2.4402,2.4418,2.4457,2.4478,2.4508,2.4519,2.4499,2.4581,2.4556,2.4589,2.4589,2.4607,2.4605,2.4696,2.462,2.462,2.462,2.462,0,2.4162,2.4208,2.4231,2.4264,2.4316,2.4327,2.4378,2.4395,2.4422,2.4458,2.4458,2.4491,2.4505,2.454,2.455,2.46,2.4609,2.4617,2.4619,2.4617,2.4616,2.4631,2.4626,2.4622,2.4622,2.4621,2.4621,0,2.4223,2.424,2.4298,2.4334,2.4343,2.438,2.4409,2.4441,2.4455,2.45,2.4512,2.4534,2.4575,2.459,2.464,2.4646,2.4704,2.4702,2.4694,2.4694,2.4726,2.4723,2.4829,2.4843,2.4758,2.4759,2.476,0,2.4268,2.4304,2.4343,2.4367,2.4387,2.4426,2.4451,2.4464,2.449,2.4529,2.4555,2.4597,2.463,2.4696,2.4716,2.4754,2.4753,2.4788,2.4759,2.4756,2.4753,2.4751,2.4754,2.4793,2.4794,2.4795,2.4795,0,2.4347,2.4354,2.4391,2.4431,2.4461,2.4493,2.4523,2.4543,2.4559,2.4588,2.4631,2.4657,2.4709,2.4749,2.4788,2.4806,2.4803,2.4804,2.4814,2.4812,2.4805,2.4809,2.4708,2.4802,2.4801,2.4801,2.48,2.48,2.4402,2.4433,2.4465,2.4506,2.4531,2.4559,2.459,2.4609,2.4645,2.4688,2.4693,2.4738,2.4768,2.482,2.484,2.4875,2.4866,2.488,2.4883,2.4886,2.4889,2.48,2.4882,2.4882,2.4882,2.4882,2.4882,0,2.448,2.4501,2.4538,2.4581,2.4613,2.4609,2.4642,2.4669,2.4709,2.4738,2.4771,2.482,2.4859,2.4882,2.4921,2.4944,2.4944,2.4954,2.4953,2.4957,2.4895,2.4883,2.4954,2.4954,2.4954,2.4954,2.4954,2.4954,2.4525,2.4578,2.4588,2.4652,2.4672,2.4718,2.4737,2.4763,2.4786,2.4841,2.4874,2.4889,2.4915,2.4955,2.4991,2.4996,2.5011,2.5022,2.5026,2.4968,2.4961,2.4954,2.4942,2.5025,2.5025,2.5085,2.5085,2.5086]}]]